Location: Columbia
(38.9520°N, 92.3340°W)
Time: 00:49:52
(UTC-05:00)

Tiangong 1 - Visible Passes

Search period start: 30 March 2015 00:00
Search period end: 09 April 2015 00:00
Orbit: 338 x 353 km, 42.8° (Epoch: 29 March)

Date Brightness Start Highest point End Pass type
(mag) Time Alt. Az. Time Alt. Az. Time Alt. Az.
30 Mar 2.1 20:03:11 10° WNW 20:05:58 36° N 20:08:44 10° ENE visible
30 Mar 3.5 21:39:07 10° WNW 21:40:23 22° WNW 21:40:23 22° WNW visible
31 Mar 1.6 20:26:52 10° WNW 20:29:42 44° N 20:31:27 19° ENE visible
31 Mar 4.5 22:02:44 10° WNW 22:02:52 11° WNW 22:02:52 11° WNW visible
01 Apr 0.8 20:50:17 10° WNW 20:53:13 77° NNE 20:53:49 51° E visible
02 Apr 1.9 21:13:38 10° W 21:16:06 40° SW 21:16:06 40° SW visible
03 Apr 0.9 20:00:55 10° WNW 20:03:51 84° NNE 20:06:47 10° ESE visible
03 Apr 3.7 21:37:25 10° WSW 21:38:17 14° WSW 21:38:17 14° WSW visible
04 Apr 1.9 20:24:03 10° W 20:26:48 38° SSW 20:29:01 14° SE visible
05 Apr 3.4 20:47:41 10° WSW 20:49:29 15° SW 20:51:05 11° S visible
